PBD206 ULLI-UUWW

Flight info

Callsign PBD206
Flight time 0h 57m
Altitude 37000
Route N0450F370 SUGIN T873 NIRGI T73 DESUD T834 BEKIP
Aircraft B738/M-VGDW/C

Departure

Time 2026-05-06 16:42
Airport Pulkovo Airport (ULLI)

Arrival

Time 2026-05-06 17:40
Airport Vnukovo International Airport (UUWW)
Time Latitude Longitude Altitude Speed Heading
2026-05-06 16:23 59.80208 30.26878 80 ft 0 kts 107°
2026-05-06 16:31 59.80209 30.26872 80 ft 2 kts 105°
2026-05-06 16:31 59.80214 30.26840 82 ft 2 kts 107°
2026-05-06 16:31 59.80217 30.26808 85 ft 2 kts 86°
2026-05-06 16:32 59.80212 30.26778 82 ft 2 kts 38°
2026-05-06 16:32 59.80203 30.26767 81 ft 1 kts 20°
2026-05-06 16:32 59.80202 30.26767 85 ft 0 kts 19°
2026-05-06 16:34 59.80204 30.26768 81 ft 2 kts 18°
2026-05-06 16:35 59.80232 30.26784 85 ft 7 kts 16°
2026-05-06 16:35 59.80288 30.26817 80 ft 9 kts 16°
2026-05-06 16:35 59.80356 30.26858 81 ft 11 kts 19°
2026-05-06 16:35 59.80377 30.26984 82 ft 11 kts 105°
2026-05-06 16:36 59.80352 30.27148 80 ft 13 kts 105°
2026-05-06 16:36 59.80326 30.27335 82 ft 15 kts 105°
2026-05-06 16:36 59.80294 30.27545 79 ft 17 kts 108°
2026-05-06 16:36 59.80256 30.27777 82 ft 19 kts 108°
2026-05-06 16:37 59.80220 30.28028 76 ft 17 kts 105°
2026-05-06 16:37 59.80189 30.28262 78 ft 18 kts 105°
2026-05-06 16:37 59.80155 30.28492 69 ft 17 kts 108°
2026-05-06 16:37 59.80118 30.28721 74 ft 18 kts 107°
2026-05-06 16:38 59.80079 30.28970 76 ft 20 kts 107°
2026-05-06 16:38 59.80048 30.29187 76 ft 17 kts 106°
2026-05-06 16:38 59.80013 30.29420 67 ft 18 kts 107°
2026-05-06 16:38 59.79981 30.29634 70 ft 16 kts 107°
2026-05-06 16:39 59.79946 30.29862 71 ft 18 kts 107°
2026-05-06 16:39 59.79976 30.30087 71 ft 18 kts 50°
2026-05-06 16:39 59.80033 30.30222 69 ft 13 kts 50°
2026-05-06 16:39 59.80109 30.30264 71 ft 12 kts 318°
2026-05-06 16:40 59.80128 30.30188 73 ft 0 kts 288°
2026-05-06 16:41 59.80129 30.30181 72 ft 5 kts 288°
2026-05-06 16:42 59.80210 30.29635 74 ft 79 kts 287°
2026-05-06 16:42 59.80437 30.28132 71 ft 145 kts 287°
2026-05-06 16:42 59.80786 30.25871 227 ft 188 kts 287°
2026-05-06 16:42 59.81128 30.23432 1566 ft 166 kts 287°
2026-05-06 16:43 59.81522 30.21115 2260 ft 189 kts 289°
2026-05-06 16:43 59.81927 30.18480 2736 ft 207 kts 285°
2026-05-06 16:43 59.82317 30.15681 3518 ft 213 kts 284°
2026-05-06 16:43 59.82721 30.12840 4486 ft 214 kts 283°
2026-05-06 16:44 59.83136 30.09957 5300 ft 219 kts 282°
2026-05-06 16:44 59.83561 30.07031 6174 ft 221 kts 282°
2026-05-06 16:44 59.83986 30.04121 7032 ft 222 kts 281°
2026-05-06 16:44 59.84111 30.01079 7877 ft 217 kts 255°
2026-05-06 16:45 59.83469 29.98443 8748 ft 217 kts 233°
2026-05-06 16:45 59.82323 29.96479 9596 ft 224 kts 211°
2026-05-06 16:45 59.80835 29.95403 10370 ft 230 kts 204°
2026-05-06 16:45 59.79278 29.94515 11122 ft 234 kts 203°
2026-05-06 16:46 59.77705 29.93637 11879 ft 236 kts 204°
2026-05-06 16:46 59.76091 29.92900 12640 ft 246 kts 192°
2026-05-06 16:46 59.74332 29.93516 13348 ft 271 kts 165°
2026-05-06 16:46 59.72745 29.95790 13807 ft 308 kts 138°
2026-05-06 16:47 59.71704 29.99785 13984 ft 347 kts 110°
2026-05-06 16:47 59.71171 30.04691 14177 ft 372 kts 106°
2026-05-06 16:47 59.70555 30.09812 14330 ft 392 kts 109°
2026-05-06 16:47 59.69801 30.15138 14507 ft 412 kts 108°
2026-05-06 16:48 59.69436 30.20881 14917 ft 428 kts 94°
2026-05-06 16:48 59.69402 30.26821 15551 ft 432 kts 92°
2026-05-06 16:48 59.69366 30.32803 16182 ft 436 kts 95°
2026-05-06 16:48 59.68995 30.38770 16756 ft 438 kts 104°
2026-05-06 16:49 59.68342 30.44677 17346 ft 441 kts 107°
2026-05-06 16:49 59.67639 30.50445 17908 ft 446 kts 107°
2026-05-06 16:49 59.66944 30.56454 18465 ft 452 kts 106°
2026-05-06 16:49 59.66277 30.62639 18994 ft 456 kts 105°
2026-05-06 16:50 59.65624 30.68767 19560 ft 458 kts 105°
2026-05-06 16:50 59.65027 30.74981 20098 ft 462 kts 103°
2026-05-06 16:50 59.64498 30.81277 20612 ft 466 kts 102°
2026-05-06 16:50 59.63988 30.87630 21114 ft 470 kts 102°
2026-05-06 16:51 59.63494 30.93849 21596 ft 473 kts 102°
2026-05-06 16:51 59.62969 31.00386 22097 ft 476 kts 102°
2026-05-06 16:51 59.62443 31.06781 22562 ft 480 kts 102°
2026-05-06 16:51 59.61883 31.13466 23065 ft 483 kts 103°
2026-05-06 16:52 59.61327 31.20003 23532 ft 486 kts 103°
2026-05-06 16:52 59.60769 31.26486 23920 ft 489 kts 103°
2026-05-06 16:52 59.60188 31.33194 24335 ft 491 kts 103°
2026-05-06 16:52 59.59603 31.39914 24729 ft 493 kts 103°
2026-05-06 16:53 59.59030 31.46447 25118 ft 495 kts 103°
2026-05-06 16:53 59.58428 31.53285 25531 ft 497 kts 103°
2026-05-06 16:53 59.57831 31.60020 25904 ft 499 kts 103°
2026-05-06 16:53 59.57229 31.66770 26284 ft 500 kts 103°
2026-05-06 16:54 59.56626 31.73486 26634 ft 502 kts 103°
2026-05-06 16:54 59.56012 31.80300 27028 ft 503 kts 103°
2026-05-06 16:54 59.55401 31.87023 27386 ft 505 kts 103°
2026-05-06 16:54 59.54777 31.93887 27708 ft 507 kts 103°
2026-05-06 16:55 59.54149 32.00725 28037 ft 509 kts 103°
2026-05-06 16:55 59.53326 32.07534 28316 ft 506 kts 114°
2026-05-06 16:55 59.51754 32.13617 28612 ft 498 kts 130°
2026-05-06 16:55 59.49589 32.18851 28950 ft 491 kts 139°
2026-05-06 16:56 59.47189 32.23624 29266 ft 490 kts 142°
2026-05-06 16:56 59.44697 32.28243 29604 ft 490 kts 143°
2026-05-06 16:56 59.42194 32.32836 30024 ft 489 kts 142°
2026-05-06 16:56 59.39740 32.37407 30405 ft 488 kts 142°
2026-05-06 16:57 59.37315 32.42001 30752 ft 487 kts 141°
2026-05-06 16:57 59.34900 32.46631 31050 ft 487 kts 141°
2026-05-06 16:57 59.32458 32.51343 31381 ft 487 kts 141°
2026-05-06 16:57 59.30053 32.55991 31717 ft 486 kts 141°
2026-05-06 16:58 59.27677 32.60577 32021 ft 485 kts 141°
2026-05-06 16:58 59.25268 32.65213 32334 ft 485 kts 141°
2026-05-06 16:58 59.22887 32.69784 32645 ft 484 kts 141°
2026-05-06 16:58 59.20464 32.74424 32945 ft 484 kts 141°
2026-05-06 16:59 59.18030 32.79070 33258 ft 483 kts 141°
2026-05-06 16:59 59.15670 32.83568 33580 ft 482 kts 141°
2026-05-06 16:59 59.13258 32.88156 33906 ft 481 kts 141°
2026-05-06 16:59 59.10894 32.92642 34150 ft 481 kts 141°
2026-05-06 17:00 59.08506 32.97164 34367 ft 481 kts 141°
2026-05-06 17:00 59.06048 33.01809 34606 ft 481 kts 141°
2026-05-06 17:00 59.03730 33.06181 34830 ft 480 kts 141°
2026-05-06 17:00 59.01295 33.10765 35047 ft 480 kts 141°
2026-05-06 17:01 58.98855 33.15349 35268 ft 480 kts 141°
2026-05-06 17:01 58.96456 33.19850 35496 ft 480 kts 141°
2026-05-06 17:01 58.94123 33.24220 35707 ft 480 kts 141°
2026-05-06 17:01 58.91699 33.28744 35917 ft 480 kts 141°
2026-05-06 17:02 58.89303 33.33206 36119 ft 479 kts 141°
2026-05-06 17:02 58.86933 33.37602 36428 ft 476 kts 141°
2026-05-06 17:02 58.84548 33.42011 36667 ft 475 kts 141°
2026-05-06 17:02 58.82110 33.46518 36794 ft 477 kts 141°
2026-05-06 17:03 58.79717 33.50938 36922 ft 478 kts 141°
2026-05-06 17:03 58.74905 33.59808 36986 ft 478 kts 141°
2026-05-06 17:04 58.70110 33.68609 36999 ft 477 kts 141°
2026-05-06 17:04 58.65295 33.77408 36995 ft 477 kts 142°
2026-05-06 17:05 58.60478 33.86174 36996 ft 477 kts 142°
2026-05-06 17:05 58.55664 33.94900 36995 ft 476 kts 142°
2026-05-06 17:06 58.50861 34.03570 36991 ft 477 kts 142°
2026-05-06 17:06 58.45988 34.12333 36998 ft 477 kts 142°
2026-05-06 17:07 58.41177 34.20951 36995 ft 477 kts 142°
2026-05-06 17:07 58.36318 34.29621 36993 ft 478 kts 142°
2026-05-06 17:08 58.31494 34.38196 36993 ft 478 kts 142°
2026-05-06 17:08 58.26607 34.46849 36985 ft 478 kts 142°
2026-05-06 17:09 58.22534 34.54040 36979 ft 478 kts 142°
2026-05-06 17:09 58.17594 34.62455 36988 ft 476 kts 144°
2026-05-06 17:10 58.12533 34.70369 36982 ft 475 kts 146°
2026-05-06 17:10 58.07417 34.78360 36991 ft 476 kts 145°
2026-05-06 17:11 58.02318 34.86371 36974 ft 476 kts 145°
2026-05-06 17:11 57.97207 34.94389 36977 ft 476 kts 145°
2026-05-06 17:12 57.92136 35.02313 36978 ft 476 kts 145°
2026-05-06 17:12 57.87002 35.10303 36985 ft 476 kts 145°
2026-05-06 17:13 57.81990 35.18071 36978 ft 476 kts 145°
2026-05-06 17:13 57.76780 35.26117 36971 ft 476 kts 145°
2026-05-06 17:14 57.71699 35.33935 36964 ft 476 kts 145°
2026-05-06 17:14 57.66575 35.41793 36965 ft 475 kts 145°
2026-05-06 17:15 57.61387 35.49458 36954 ft 471 kts 152°
2026-05-06 17:15 57.55531 35.54370 36971 ft 457 kts 169°
2026-05-06 17:16 57.49438 35.57756 36959 ft 457 kts 168°
2026-05-06 17:16 57.43314 35.61302 36959 ft 458 kts 168°
2026-05-06 17:17 57.37277 35.64820 36950 ft 458 kts 168°
2026-05-06 17:17 57.31206 35.68410 36945 ft 460 kts 163°
2026-05-06 17:18 57.25582 35.74329 36961 ft 469 kts 149°
2026-05-06 17:18 57.20257 35.81316 36942 ft 470 kts 149°
2026-05-06 17:19 57.14911 35.88262 36939 ft 470 kts 149°
2026-05-06 17:19 57.09529 35.95169 36626 ft 474 kts 149°
2026-05-06 17:19 57.06824 35.98622 36145 ft 471 kts 150°
2026-05-06 17:20 57.04131 36.02053 35563 ft 470 kts 150°
2026-05-06 17:20 57.01447 36.05467 34898 ft 467 kts 150°
2026-05-06 17:20 56.98782 36.08852 33997 ft 467 kts 150°
2026-05-06 17:20 56.96101 36.12248 32752 ft 471 kts 150°
2026-05-06 17:21 56.93389 36.15675 31418 ft 477 kts 150°
2026-05-06 17:21 56.90646 36.19139 30241 ft 480 kts 150°
2026-05-06 17:21 56.87905 36.22601 29257 ft 475 kts 150°
2026-05-06 17:21 56.85208 36.26005 28481 ft 465 kts 150°
2026-05-06 17:22 56.82570 36.29321 27711 ft 456 kts 150°
2026-05-06 17:22 56.79904 36.32303 26880 ft 445 kts 155°
2026-05-06 17:22 56.77228 36.35054 26047 ft 439 kts 156°
2026-05-06 17:22 56.74567 36.37745 25239 ft 434 kts 156°
2026-05-06 17:23 56.71939 36.40392 24462 ft 428 kts 156°
2026-05-06 17:23 56.69354 36.43003 23725 ft 423 kts 156°
2026-05-06 17:23 56.66765 36.45623 22898 ft 417 kts 156°
2026-05-06 17:23 56.64276 36.48144 22046 ft 412 kts 156°
2026-05-06 17:24 56.61782 36.50671 21219 ft 407 kts 156°
2026-05-06 17:24 56.59321 36.53161 20408 ft 403 kts 156°
2026-05-06 17:24 56.56874 36.55632 19482 ft 402 kts 156°
2026-05-06 17:24 56.54437 36.58090 18655 ft 399 kts 156°
2026-05-06 17:25 56.52028 36.60519 17875 ft 394 kts 156°
2026-05-06 17:25 56.49655 36.62909 17045 ft 388 kts 156°
2026-05-06 17:25 56.47298 36.65279 16234 ft 384 kts 156°
2026-05-06 17:25 56.44976 36.67610 15437 ft 380 kts 156°
2026-05-06 17:26 56.42677 36.69914 14665 ft 376 kts 156°
2026-05-06 17:26 56.40400 36.72193 13916 ft 372 kts 156°
2026-05-06 17:26 56.38146 36.74446 13122 ft 368 kts 156°
2026-05-06 17:26 56.35914 36.76674 12513 ft 365 kts 156°
2026-05-06 17:27 56.33696 36.78884 11989 ft 363 kts 156°
2026-05-06 17:27 56.31492 36.81077 11515 ft 361 kts 156°
2026-05-06 17:27 56.29316 36.83240 11053 ft 359 kts 156°
2026-05-06 17:27 56.27127 36.85413 10724 ft 352 kts 155°
2026-05-06 17:28 56.25014 36.87512 10560 ft 341 kts 155°
2026-05-06 17:28 56.22970 36.89540 10415 ft 331 kts 156°
2026-05-06 17:28 56.21002 36.91489 10274 ft 322 kts 156°
2026-05-06 17:28 56.19041 36.93429 10140 ft 313 kts 156°
2026-05-06 17:29 56.17179 36.95267 10006 ft 305 kts 156°
2026-05-06 17:29 56.15337 36.97082 9855 ft 298 kts 156°
2026-05-06 17:29 56.13519 36.98870 9541 ft 297 kts 156°
2026-05-06 17:29 56.11720 37.00636 9251 ft 294 kts 156°
2026-05-06 17:30 56.09935 37.02388 8972 ft 292 kts 156°
2026-05-06 17:30 56.08152 37.04135 8682 ft 291 kts 156°
2026-05-06 17:30 56.06385 37.05867 8395 ft 289 kts 156°
2026-05-06 17:30 56.04625 37.07590 8113 ft 288 kts 156°
2026-05-06 17:31 56.02872 37.09305 7877 ft 284 kts 156°
2026-05-06 17:31 56.01146 37.10992 7619 ft 282 kts 156°
2026-05-06 17:31 55.99424 37.12673 7349 ft 281 kts 156°
2026-05-06 17:31 55.97716 37.14339 7078 ft 280 kts 156°
2026-05-06 17:32 55.96013 37.15999 6809 ft 279 kts 156°
2026-05-06 17:32 55.94313 37.17653 6536 ft 278 kts 156°
2026-05-06 17:32 55.92617 37.19302 6255 ft 277 kts 156°
2026-05-06 17:32 55.90950 37.20921 5962 ft 276 kts 155°
2026-05-06 17:33 55.89264 37.22557 5668 ft 275 kts 155°
2026-05-06 17:33 55.87565 37.24203 5384 ft 274 kts 155°
2026-05-06 17:33 55.85890 37.25825 5110 ft 273 kts 154°
2026-05-06 17:33 55.84220 37.27442 4841 ft 272 kts 154°
2026-05-06 17:34 55.82581 37.29027 4569 ft 271 kts 154°
2026-05-06 17:34 55.80922 37.30627 4244 ft 271 kts 153°
2026-05-06 17:34 55.79288 37.32206 4096 ft 265 kts 153°
2026-05-06 17:34 55.77705 37.33734 3939 ft 252 kts 153°
2026-05-06 17:35 55.76206 37.35179 3848 ft 236 kts 153°
2026-05-06 17:35 55.74822 37.36513 3756 ft 217 kts 153°
2026-05-06 17:35 55.73547 37.37739 3656 ft 200 kts 153°
2026-05-06 17:36 55.71189 37.40004 3349 ft 192 kts 152°
2026-05-06 17:36 55.70009 37.41135 3153 ft 193 kts 152°
2026-05-06 17:36 55.68849 37.42246 2932 ft 185 kts 152°
2026-05-06 17:36 55.67740 37.43309 2740 ft 178 kts 151°
2026-05-06 17:37 55.66653 37.44350 2578 ft 176 kts 151°
2026-05-06 17:37 55.65584 37.45372 2418 ft 176 kts 150°
2026-05-06 17:37 55.64439 37.45896 2222 ft 170 kts 189°
2026-05-06 17:37 55.63523 37.44838 2105 ft 158 kts 241°
2026-05-06 17:38 55.63006 37.43106 2068 ft 159 kts 248°
2026-05-06 17:38 55.62580 37.41344 1939 ft 154 kts 251°
2026-05-06 17:38 55.62186 37.39604 1835 ft 157 kts 251°
2026-05-06 17:38 55.61782 37.37807 1732 ft 156 kts 251°
2026-05-06 17:39 55.61380 37.36025 1563 ft 155 kts 251°
2026-05-06 17:39 55.61003 37.34285 1435 ft 150 kts 251°
2026-05-06 17:39 55.60606 37.32559 1148 ft 152 kts 251°
2026-05-06 17:39 55.60212 37.30844 953 ft 148 kts 250°
2026-05-06 17:40 55.59827 37.29185 745 ft 144 kts 250°
2026-05-06 17:40 55.59483 37.27609 689 ft 123 kts 249°
2026-05-06 17:40 55.59245 37.26543 688 ft 48 kts 247°
2026-05-06 17:40 55.59178 37.26205 690 ft 17 kts 279°
2026-05-06 17:41 55.59219 37.26184 688 ft 7 kts 27°
2026-05-06 17:41 55.59279 37.26235 684 ft 12 kts 26°
2026-05-06 17:41 55.59367 37.26308 693 ft 16 kts 25°
2026-05-06 17:41 55.59446 37.26416 692 ft 16 kts 62°
2026-05-06 17:42 55.59488 37.26602 690 ft 14 kts 68°
2026-05-06 17:42 55.59518 37.26733 687 ft 12 kts 67°
2026-05-06 17:42 55.59544 37.26848 686 ft 10 kts 81°
2026-05-06 17:42 55.59527 37.26985 689 ft 12 kts 85°
2026-05-06 17:43 55.59558 37.27126 685 ft 12 kts 69°
2026-05-06 17:43 55.59595 37.27290 682 ft 9 kts 68°
2026-05-06 17:43 55.59627 37.27427 687 ft 15 kts 68°
2026-05-06 17:43 55.59660 37.27573 683 ft 13 kts 68°
2026-05-06 17:44 55.59693 37.27720 688 ft 13 kts 65°
2026-05-06 17:44 55.59764 37.27788 682 ft 13 kts 12°
2026-05-06 17:44 55.59841 37.27827 686 ft 9 kts 17°
2026-05-06 17:44 55.59911 37.27865 684 ft 8 kts 17°
2026-05-06 17:45 55.59944 37.27888 687 ft 4 kts 41°
2026-05-06 17:45 55.59948 37.27952 687 ft 7 kts 103°
2026-05-06 17:45 55.59937 37.28050 685 ft 8 kts 97°
2026-05-06 17:45 55.59954 37.28090 686 ft 4 kts 15°
2026-05-06 17:46 55.59998 37.28097 684 ft 6 kts
2026-05-06 17:46 55.60010 37.28098 682 ft 0 kts